Regional Weather Roundup
Issued by NWS

Home | Current Version | Previous Version | Graphics & Text | Print | Product List | Glossary On
Versions: 1 2 3 4 5 6 7 8 9 10 11 12 13 14 15 16 17 18 19 20 21 22 23 24 25 26 27 28 29 30 31 32 33 34 35 36 37 38 39 40 41 42 43 44 45 46 47 48 49 50
000
ASUS45 KSLC 242010
RWRUT

UTAH REGIONAL WEATHER ROUNDUP
NATIONAL WEATHER SERVICE SALT LAKE CITY UT
200 PM MDT SUN MAY 24 2015

UTZ001>011-023>025-242100-

NORTHERN UTAH

CITY           SKY/WX    TMP DP  RH WIND       PRES   REMARKS
BRIGHAM CITY   PTSUNNY   60  46  60 S6        29.93F
HILL AFB       LGT RAIN  56  49  76 VRB5      29.94F
LOGAN          MOSUNNY   61  45  55 NW6       29.91F
OGDEN          CLOUDY    57  48  72 S10       29.93F
PROVO AIRPORT  PTSUNNY   57  45  62 NW7       29.96S
SALT LAKE CITY MOSUNNY   61  46  57 CALM      29.93F
VERNAL         CLOUDY    49  42  77 NE15      29.95S
WENDOVER       MOSUNNY   63  50  63 NE12G17   29.94F
HEBER CITY     PTSUNNY   59  37  44 W5        29.94F
WEST JORDAN    CLOUDY    61  46  59 CALM      29.95F

$$

UTZ012>022-026-027-242100-

SOUTHERN/CENTRAL UTAH

CITY           SKY/WX    TMP DP  RH WIND       PRES   REMARKS
BLANDING       CLOUDY    51  45  79 CALM      30.06F
BRYCE CANYON   MOSUNNY   55  36  48 NW12      30.03F
CEDAR CITY     PTSUNNY   56  44  64 VRB5      29.98F
DELTA          CLOUDY    61  40  45 NW6       29.95F
HANKSVILLE     MOSUNNY   68  36  30 SW8       29.93F
MILFORD        PTSUNNY   60  47  61 SW14      29.96F
MOAB/CYNLANDS  PTSUNNY   66  34  30 SW8       29.90F
PRICE          CLOUDY    64  33  31 W8        29.93F
ST GEORGE      MOCLDY    70  46  43 N8G16     29.92F
KANAB          PTSUNNY   54  46  76 SW6       30.00F

$$

REGIONAL REPORTS     COLORADO/ARIZONA

CITY           SKY/WX    TMP DP  RH WIND       PRES   REMARKS
CRAIG, CO      LGT RAIN  43  39  86 W12       29.96S
GRAND JUNCTION PTSUNNY   60  41  49 NW7       29.91F
RIFLE          LGT RAIN  50  41  71 N6        29.96R
MONTROSE       PTSUNNY   56  39  53 NW10      29.96S
CORTEZ         PTSUNNY   56  41  57 SW6       29.99F
PAGE, AZ       PTSUNNY   63  47  55 NE3       29.94F
GRAND CANYON   LGT RAIN  50  46  86 SW10      30.07F
KINGMAN        PTSUNNY   73  36  25 CALM      29.94F
FLAGSTAFF      CLOUDY    52  37  56 W13       30.08S

$$

REGIONAL REPORTS    NEVADA/IDAHO/WYOMING

CITY           SKY/WX    TMP DP  RH WIND       PRES   REMARKS
LAS VEGAS, NV  MOSUNNY   79  44  28 S8        29.84F
ELY            PTSUNNY   54  44  69 MISG      30.03F
ELKO           PTSUNNY   52  45  77 SE6       29.99F
POCATELLO, ID  PTSUNNY   63  47  55 VRB3      29.94F
BURLEY         PTSUNNY   61  46  57 CALM      29.93F
EVANSTON, WY   CLOUDY    53  36  52 W8        29.96F
ROCK SPRINGS   CLOUDY    40  37  89 S6        29.97F
KEMMERER       RAIN      43  41  93 NE14      29.98R

$$


USA.gov is the U.S. government's official web portal to all federal, state and local government web resources and services.